Temperature
17 18 19 18 18 17 16 15 14 14 13 11 11 11 11 11 11 11 10 11 11 11 11 11 12 12 12 12 12 12 13 13 14 14 14 14 13 13 13 12 12 12 11 11
18 19 18 18 17 16 14 14 13 12 11 11 11 11 10 10 10 10 10 10 10 10 10 10 11 11 11 11 11 11 11 12 12 13 13 13 13 13 12 12 12 12 11 11
16 17 18 16 14 14 12 12 11 12 10 10 10 10 9 9 9 9 9 9 10 10 10 10 10 10 10 10 10 10 10 11 11 11 12 12 12 12 12 12 12 12 11 11
15 17 17 13 13 13 12 11 11 10 10 9 9 8 8 9 9 9 9 9 10 10 10 10 10 10 10 10 10 10 10 10 10 10 11 11 11 11 11 11 11 11 11 11
14 16 15 14 13 12 12 11 10 9 9 9 8 8 9 10 10 9 9 9 9 10 10 10 10 10 10 10 10 9 9 9 9 9 10 10 10 11 11 11 11 11 11 11
14 16 15 12 12 12 12 11 9 9 9 9 8 7 8 10 9 9 9 9 9 10 10 10 10 10 10 10 9 9 9 9 9 9 9 9 9 10 10 10 11 11 11 11
13 14 12 10 10 12 11 10 10 9 9 9 8 7 8 9 9 9 9 9 9 9 9 9 10 9 9 9 9 9 9 9 9 9 8 8 9 9 9 10 10 10 11 11
12 13 12 9 10 10 9 10 10 9 9 9 8 8 9 9 9 9 9 9 9 8 9 9 9 9 9 9 9 9 9 9 9 8 8 8 8 8 8 9 10 10 10 10
10 10 9 10 10 11 10 10 9 9 9 9 8 8 8 8 8 8 8 8 8 8 8 8 8 8 8 8 8 8 8 8 8 8 8 8 8 8 8 8 9 9 10 10
9 9 10 10 11 11 10 9 9 9 9 9 8 8 8 8 8 8 8 8 8 7 7 7 7 7 7 7 7 7 7 8 8 8 8 8 7 7 7 7 8 9 9 10
9 9 10 11 11 10 9 9 9 9 9 9 8 8 8 8 8 8 7 7 7 7 7 7 7 7 7 7 7 6 7 7 7 7 7 7 7 7 7 7 8 9 10 10
9 10 9 10 10 9 9 9 9 9 8 8 8 8 8 7 7 7 7 7 7 7 6 6 6 6 6 6 6 6 6 6 6 6 7 7 7 7 7 7 8 8 9 10
10 10 10 9 9 9 9 9 8 8 8 8 8 8 7 7 7 7 6 6 6 6 6 6 6 6 6 6 5 5 5 5 6 6 6 6 6 6 7 7 8 8 9 10
10 10 9 9 9 9 9 8 8 8 8 7 7 7 7 6 6 6 6 5 5 5 5 5 5 5 5 5 5 4 5 5 5 5 5 6 6 6 6 6 7 8 9 9
10 9 9 9 9 8 8 8 7 7 7 7 6 6 6 5 5 5 5 5 4 4 4 4 4 4 4 4 4 4 4 4 4 5 5 5 6 6 6 6 7 8 8 9
9 9 9 8 8 8 7 7 6 6 6 6 5 5 5 4 4 4 4 4 4 4 4 4 4 4 4 4 4 4 4 4 4 4 5 5 6 6 6 7 7 8 8 9
8 8 8 7 7 7 7 6 6 5 5 5 4 4 4 3 3 3 3 3 3 3 3 3 4 4 4 3 3 3 3 4 4 4 4 5 5 6 6 7 7 8 8 9
8 8 8 7 7 6 6 5 5 4 4 4 3 3 3 3 3 3 3 3 3 3 4 4 4 3 3 3 3 3 3 3 4 4 4 5 5 6 6 7 7 8 8 9
8 8 7 7 6 5 5 4 4 4 3 3 3 2 3 3 3 3 3 3 3 3 4 4 4 4 4 4 3 3 3 3 4 4 5 5 6 6 7 7 8 8 9 9
8 7 6 6 5 5 4 4 3 3 3 3 3 2 3 3 3 3 3 3 4 4 4 4 4 4 4 4 3 3 3 3 4 4 5 5 6 6 7 7 8 9 9 10
7 6 6 5 5 4 4 4 3 3 3 3 3 2 3 3 3 3 4 4 4 4 4 4 4 4 4 4 4 4 4 4 4 5 5 6 6 7 7 8 8 9 10 10
6 5 5 4 4 4 4 4 3 3 3 3 3 3 3 3 4 4 4 4 4 4 4 4 4 4 4 4 4 4 4 4 5 5 5 6 7 7 7 8 9 9 10 11
5 5 5 4 4 4 4 4 4 3 3 3 3 3 3 4 4 4 4 5 5 5 5 4 4 4 4 4 5 5 5 5 5 6 6 7 7 7 8 9 9 10 11 11
5 5 4 4 4 4 3 4 4 3 3 3 3 4 4 4 4 4 5 5 5 5 5 5 5 5 5 5 5 5 5 6 6 6 7 7 7 8 8 9 10 11 11 11
5 4 4 4 3 3 3 3 3 3 3 3 4 4 4 4 4 5 5 5 5 5 6 6 5 5 5 5 6 6 6 6 7 7 7 8 8 9 9 10 11 11 11 11
4 4 4 4 4 3 3 3 3 3 3 3 3 4 4 4 5 5 5 6 6 6 6 6 6 6 6 6 6 7 7 7 7 8 8 8 9 9 10 10 11 11 12 12
4 4 4 4 4 4 4 3 3 3 3 3 3 4 4 4 5 5 6 6 6 6 6 7 7 7 7 7 7 7 7 8 8 8 9 9 10 10 11 11 11 12 12 12
Wind_Speed
8 7 2 3 4 3 2 4 6 2 4 4 5 6 6 7 8 10 11 12 12 11 10 10 10 10 10 11 11 11 11 11 10 10 8 8 7 7 6 4 3 2 2 4
4 4 2 0 5 4 5 5 3 6 5 6 5 7 8 9 10 11 12 13 13 12 12 12 12 12 12 12 11 11 11 11 11 9 7 8 9 8 7 6 4 2 1 1
4 4 2 4 7 4 5 5 4 3 3 7 10 13 12 11 10 11 13 14 14 14 12 12 12 11 11 11 11 10 10 10 10 9 8 8 8 8 9 8 5 4 3 2
1 2 1 2 4 6 5 4 5 4 5 7 9 12 11 9 8 10 12 14 15 14 14 13 12 12 11 11 11 10 10 10 10 10 10 8 7 9 10 7 7 6 5 5
2 0 2 3 4 6 4 1 4 6 9 10 10 9 7 7 8 10 12 14 14 14 14 13 15 14 12 12 11 11 11 10 10 9 10 9 9 9 10 9 9 8 6 7
3 1 1 2 8 10 4 2 2 6 10 11 9 8 7 8 11 15 16 14 14 13 13 13 15 12 11 13 12 13 12 11 10 9 9 10 10 10 9 10 11 10 9 8
3 1 2 4 11 8 2 5 8 9 10 10 8 9 12 14 16 17 17 17 16 14 13 13 14 11 12 13 14 15 13 11 11 10 9 10 9 8 8 10 12 11 11 9
3 3 2 6 6 4 5 7 8 9 10 11 13 15 16 16 15 15 16 16 15 14 15 14 13 12 13 14 15 13 12 12 12 11 10 10 8 9 8 9 13 13 12 10
2 1 2 3 4 7 7 9 10 9 13 15 15 16 16 15 15 15 16 16 14 14 15 14 12 11 13 15 14 13 12 13 13 12 10 9 8 9 8 8 10 13 13 12
3 1 4 6 7 7 8 10 12 13 15 15 16 17 17 17 16 15 16 16 15 15 15 15 14 13 13 14 13 12 13 13 12 11 11 9 7 7 7 7 8 12 14 14
1 4 8 7 8 9 11 12 13 14 15 15 16 18 19 17 17 17 16 15 14 15 16 18 16 15 15 14 12 12 12 12 11 11 10 10 9 7 8 8 9 12 14 15
3 6 6 10 11 12 13 13 16 17 16 15 16 19 20 19 17 17 17 16 16 17 17 18 17 16 15 14 13 12 12 11 10 9 9 9 9 10 11 11 14 16 17 17
6 7 7 11 11 11 11 15 17 17 18 20 18 18 19 18 17 16 17 18 18 18 19 18 17 17 15 14 13 13 13 11 9 9 9 9 9 9 10 9 11 14 17 19
9 7 9 10 12 15 16 18 18 16 17 18 19 19 18 19 18 19 20 19 19 19 19 18 18 18 15 13 13 14 13 15 13 9 9 9 9 9 8 8 8 7 11 18
10 8 11 13 12 14 16 16 18 19 18 19 18 18 19 20 21 22 21 21 20 20 21 20 19 18 14 13 13 14 12 10 10 9 9 9 9 9 8 9 8 8 8 11
10 12 13 14 16 17 18 18 19 18 19 19 19 19 20 21 22 22 22 21 21 22 21 20 20 18 15 13 13 11 11 16 14 9 9 9 9 9 8 8 7 9 12 13
8 10 12 16 16 17 17 17 17 18 19 21 22 22 22 22 23 24 23 22 22 22 21 21 20 18 15 13 12 10 9 11 15 11 8 9 9 9 8 7 6 9 11 15
10 11 14 16 18 19 20 18 19 20 21 22 23 22 23 24 25 25 25 23 22 21 20 19 18 16 13 12 10 8 8 8 8 8 8 8 9 8 7 7 7 10 11 12
13 13 14 16 17 17 17 18 20 20 21 21 22 23 23 24 24 24 24 23 22 21 18 15 17 15 11 11 11 7 8 8 8 8 8 9 9 8 7 7 7 11 12 13
12 14 15 16 16 16 18 18 19 21 21 21 23 23 24 24 24 24 23 21 18 15 15 15 14 12 10 10 10 6 7 8 8 7 7 7 8 7 7 7 8 11 13 14
14 15 16 16 17 17 17 18 19 21 22 22 22 24 25 25 24 22 20 18 16 15 14 14 10 8 7 6 7 5 6 7 7 7 7 7 7 7 7 7 9 12 12 13
12 14 15 16 17 18 18 17 18 21 22 22 24 24 25 24 24 21 18 14 14 15 12 9 7 7 7 6 4 5 6 6 6 6 7 7 6 6 7 8 10 12 12 12
12 13 14 15 17 19 19 18 19 20 21 23 24 24 24 22 18 17 16 13 12 15 11 8 8 9 7 4 3 4 5 6 6 6 6 6 6 6 7 9 10 11 12 12
11 12 14 14 15 16 18 21 21 19 21 22 21 22 21 18 16 14 13 15 16 15 9 8 9 7 4 2 3 4 4 5 5 5 5 5 5 6 7 9 10 11 11 12
11 11 12 15 16 15 17 19 20 20 20 19 21 21 18 15 15 16 15 15 16 13 9 7 7 5 3 2 2 3 3 4 4 4 4 4 5 5 8 9 10 11 11 11
10 11 12 13 13 13 15 15 16 17 17 18 18 17 17 15 16 15 13 14 15 12 9 6 5 4 2 2 2 2 2 2 3 4 4 4 5 6 8 10 11 10 10 10
10 10 10 12 12 13 14 15 16 17 17 18 19 17 17 17 16 16 16 13 12 11 9 7 6 4 3 2 2 1 1 1 2 3 4 4 5 7 8 10 9 9 9 9
Wind_Direction
238 247 231 263 309 339 197 223 222 243 105 26 3 357 350 356 2 9 8 3 360 353 346 343 342 339 338 335 335 335 330 324 309 293 268 249 240 237 240 245 256 288 332 347
282 284 219 21 6 20 35 22 53 88 65 358 347 350 348 351 356 357 352 347 341 337 333 331 329 327 326 324 325 329 330 325 320 310 286 259 245 235 231 234 239 244 268 331
277 313 37 18 1 39 64 33 29 65 18 343 347 346 336 330 335 337 335 330 325 321 317 313 310 308 306 305 308 315 321 324 327 319 302 279 257 239 230 224 218 215 212 190
281 4 255 104 55 75 101 80 59 49 351 336 320 310 295 290 291 305 311 311 308 306 304 300 297 294 291 294 297 301 307 313 319 320 308 293 268 246 235 222 211 208 200 188
91 222 131 103 19 6 326 109 42 351 328 318 310 302 281 261 258 280 291 294 294 292 291 289 289 288 289 290 290 292 294 298 305 313 313 302 280 261 240 221 213 205 195 184
75 322 304 8 323 323 284 202 8 319 309 313 326 319 295 293 299 300 300 299 296 294 290 287 285 283 280 283 284 282 282 284 288 294 304 305 290 274 249 223 215 204 194 188
49 345 84 319 312 327 2 304 305 301 297 299 289 274 281 291 296 296 298 299 299 299 295 288 287 284 278 279 277 275 275 277 280 282 287 295 297 288 263 229 211 202 192 187
12 1 360 340 5 31 276 277 282 289 288 288 286 287 292 295 293 292 294 294 294 294 293 292 289 285 282 280 279 280 279 277 277 277 283 298 301 297 276 238 212 200 190 182
67 108 250 277 257 256 261 276 283 284 286 291 291 291 292 291 289 289 287 287 285 283 286 286 282 276 275 278 280 281 279 275 275 275 273 276 286 294 289 253 218 201 190 186
82 327 283 277 267 268 270 272 279 283 286 288 288 288 288 289 287 284 283 282 281 280 281 282 278 274 270 274 277 276 275 274 274 274 275 273 275 279 283 268 228 205 191 187
22 293 301 290 278 282 293 295 293 291 289 287 286 288 288 290 288 286 285 282 278 277 278 278 276 272 271 272 271 272 272 272 272 270 270 271 272 271 271 266 240 215 197 187
250 256 258 273 282 292 293 289 289 292 293 287 284 286 288 290 289 288 287 285 283 280 279 279 276 272 269 267 264 264 268 269 269 270 270 270 274 282 267 263 251 227 207 188
252 268 265 274 285 284 283 285 291 291 290 293 292 289 289 290 291 289 287 287 285 283 282 281 277 274 270 264 260 257 257 261 263 265 267 269 271 278 289 290 254 218 201 188
267 277 285 283 288 292 292 293 294 292 291 290 293 295 295 295 295 294 293 291 289 287 286 284 280 277 272 263 259 257 255 260 262 258 260 264 263 266 274 279 263 212 196 184
285 283 278 287 291 294 297 300 304 304 302 301 300 300 300 300 299 298 297 295 294 292 290 288 284 280 274 265 260 258 256 255 256 255 257 260 260 263 267 265 244 203 177 176
291 296 294 297 300 303 306 307 307 305 305 306 306 304 301 300 299 299 298 298 297 295 292 289 284 281 276 268 262 259 253 257 259 256 256 259 258 262 259 249 228 194 182 173
302 301 301 305 307 306 307 306 307 307 308 309 307 306 305 304 302 301 300 299 296 293 291 288 286 283 277 267 260 257 249 251 260 262 254 253 257 260 245 231 214 194 181 172
289 290 295 301 307 310 310 310 309 308 308 308 308 308 307 306 304 304 303 302 299 295 291 289 286 284 275 264 255 247 241 240 244 247 250 252 258 253 234 224 212 192 172 167
303 300 301 303 305 305 306 308 309 309 309 311 310 309 307 305 304 304 304 303 300 298 295 290 286 284 275 263 260 241 235 238 242 243 244 249 255 247 229 219 201 179 168 166
302 301 303 304 305 306 307 308 310 311 312 312 311 310 310 309 309 308 306 302 296 293 292 292 291 284 273 262 259 237 231 234 239 242 242 245 248 239 219 206 187 172 167 170
304 306 308 309 310 309 309 310 313 314 314 314 314 313 312 312 311 310 309 307 304 302 300 295 291 283 270 255 248 231 226 229 233 236 238 242 243 226 207 199 179 169 169 172
305 308 310 312 313 315 315 315 315 316 316 317 317 317 316 316 316 315 309 307 308 309 309 302 296 285 272 253 230 221 223 228 230 232 236 237 228 212 199 187 173 168 169 170
307 307 309 313 315 315 316 320 322 322 321 321 320 320 320 318 318 319 322 321 319 318 318 311 307 300 283 249 222 223 228 230 231 230 228 223 213 200 190 178 170 167 167 168
308 309 311 312 316 320 323 326 325 324 322 320 320 320 322 324 325 326 323 321 324 323 325 319 317 318 307 239 230 230 227 228 229 227 218 205 193 187 185 172 167 165 164 165
309 311 316 323 328 327 324 324 325 326 326 325 324 326 328 328 328 329 329 331 333 334 334 330 327 319 304 266 249 236 228 227 223 212 194 186 183 183 174 167 165 163 164 166
314 320 320 318 319 322 326 328 328 328 329 329 331 332 333 334 333 334 334 337 339 338 338 336 337 329 311 293 280 264 246 228 207 195 186 182 180 173 166 165 162 165 166 168
317 319 323 328 330 330 330 329 328 329 331 332 333 334 337 339 340 342 342 344 344 344 343 341 341 342 337 324 315 310 284 189 163 167 169 168 165 161 162 163 164 164 165 167
Height
1509 1505 1506 1507 1508 1508 1512 1515 1520 1517 1520 1523 1521 1519 1517 1515 1511 1508 1505 1502 1499 1496 1494 1490 1487 1484 1481 1478 1474 1471 1467 1463 1460 1457 1455 1454 1453 1453 1451 1449 1447 1445 1442 1440
1508 1502 1504 1509 1510 1511 1515 1517 1518 1520 1524 1524 1522 1520 1517 1514 1511 1507 1504 1501 1498 1495 1492 1489 1485 1482 1478 1474 1471 1467 1463 1459 1455 1451 1449 1448 1447 1447 1447 1445 1444 1443 1441 1440
1516 1508 1506 1518 1521 1518 1522 1523 1523 1523 1528 1524 1521 1519 1517 1513 1510 1506 1503 1500 1496 1493 1490 1486 1483 1479 1475 1472 1467 1464 1459 1455 1451 1446 1443 1442 1441 1441 1441 1441 1441 1440 1439 1439
1520 1513 1521 1531 1523 1522 1524 1526 1526 1526 1526 1525 1522 1518 1514 1510 1507 1504 1501 1497 1494 1490 1486 1482 1479 1475 1471 1467 1464 1460 1455 1451 1447 1442 1439 1436 1435 1435 1435 1436 1436 1437 1436 1437
1525 1522 1523 1526 1525 1525 1525 1526 1528 1527 1524 1521 1518 1514 1509 1507 1505 1502 1498 1493 1489 1485 1481 1477 1473 1469 1465 1461 1458 1454 1450 1447 1442 1438 1434 1431 1429 1428 1428 1429 1430 1432 1433 1434
1525 1523 1527 1535 1528 1525 1525 1525 1528 1526 1522 1519 1516 1515 1509 1505 1501 1496 1492 1487 1482 1478 1473 1469 1466 1462 1458 1454 1451 1447 1444 1441 1437 1433 1429 1426 1423 1421 1421 1421 1423 1426 1428 1429
1529 1528 1531 1536 1529 1524 1530 1532 1527 1524 1521 1517 1515 1511 1504 1499 1495 1490 1486 1481 1476 1471 1466 1462 1458 1454 1450 1446 1443 1440 1437 1434 1430 1427 1424 1420 1416 1414 1412 1412 1414 1418 1422 1424
1531 1531 1536 1535 1531 1533 1534 1527 1524 1520 1517 1513 1508 1503 1498 1493 1488 1483 1478 1474 1469 1464 1459 1455 1451 1447 1441 1438 1435 1432 1428 1425 1423 1420 1417 1413 1410 1406 1404 1403 1405 1409 1414 1418
1535 1539 1537 1534 1533 1531 1528 1524 1520 1516 1512 1507 1501 1496 1491 1486 1481 1475 1471 1466 1461 1456 1450 1446 1443 1439 1433 1429 1426 1423 1420 1417 1414 1412 1409 1407 1403 1400 1396 1395 1394 1399 1404 1410
1535 1535 1534 1531 1529 1527 1524 1520 1516 1511 1506 1501 1495 1489 1484 1478 1472 1467 1461 1457 1452 1446 1441 1436 1432 1429 1425 1420 1417 1413 1410 1407 1405 1403 1400 1398 1396 1393 1389 1386 1386 1390 1395 1401
1537 1535 1531 1528 1526 1523 1519 1515 1510 1505 1501 1495 1489 1482 1476 1469 1463 1457 1451 1446 1441 1436 1430 1425 1421 1417 1414 1411 1407 1403 1400 1398 1396 1394 1392 1389 1387 1384 1381 1379 1378 1381 1386 1393
1537 1533 1531 1526 1522 1518 1513 1508 1504 1498 1492 1487 1481 1474 1467 1460 1453 1447 1441 1435 1429 1424 1418 1413 1409 1405 1402 1400 1397 1393 1390 1388 1386 1385 1383 1381 1378 1375 1373 1371 1370 1373 1379 1387
1533 1530 1527 1522 1517 1513 1508 1502 1497 1491 1485 1478 1471 1465 1458 1450 1443 1436 1430 1424 1417 1412 1406 1401 1396 1392 1389 1387 1385 1382 1379 1378 1376 1375 1374 1372 1370 1368 1365 1363 1362 1366 1372 1381
1530 1526 1521 1517 1512 1507 1502 1496 1489 1483 1477 1470 1463 1455 1448 1440 1433 1425 1418 1412 1405 1399 1393 1388 1383 1379 1376 1374 1372 1370 1368 1367 1366 1365 1365 1363 1362 1361 1359 1357 1356 1358 1366 1374
1526 1523 1518 1512 1506 1501 1495 1488 1481 1474 1467 1460 1453 1446 1438 1430 1421 1413 1406 1399 1392 1386 1380 1375 1369 1365 1363 1361 1359 1357 1356 1355 1355 1355 1355 1355 1355 1354 1352 1351 1351 1354 1360 1368
1521 1517 1513 1507 1500 1494 1488 1481 1473 1465 1458 1450 1443 1435 1427 1419 1410 1402 1394 1387 1380 1372 1366 1361 1356 1353 1350 1348 1346 1345 1345 1345 1346 1346 1346 1346 1347 1346 1345 1345 1346 1349 1356 1362
1517 1511 1505 1500 1494 1487 1481 1475 1467 1458 1450 1441 1433 1425 1416 1407 1398 1390 1382 1375 1369 1361 1355 1349 1343 1340 1338 1336 1335 1334 1334 1335 1336 1337 1338 1339 1339 1339 1339 1340 1341 1346 1352 1359
1515 1509 1503 1497 1489 1482 1474 1467 1459 1451 1442 1433 1424 1415 1406 1397 1387 1378 1370 1363 1356 1349 1343 1338 1333 1329 1326 1325 1325 1325 1325 1326 1328 1329 1331 1332 1333 1333 1334 1336 1338 1343 1349 1356
1510 1504 1498 1492 1485 1477 1468 1460 1451 1443 1433 1425 1415 1406 1397 1387 1378 1369 1360 1352 1344 1337 1331 1327 1323 1320 1317 1316 1316 1316 1318 1319 1321 1323 1325 1326 1327 1328 1330 1332 1336 1341 1346 1353
1504 1499 1492 1485 1478 1470 1462 1453 1444 1435 1425 1417 1407 1397 1387 1378 1369 1359 1350 1343 1336 1329 1322 1318 1314 1311 1309 1308 1309 1310 1311 1313 1315 1317 1319 1321 1322 1324 1326 1329 1333 1339 1345 1352
1499 1492 1486 1478 1470 1463 1455 1446 1437 1427 1418 1409 1400 1390 1379 1369 1360 1351 1342 1333 1327 1321 1316 1311 1307 1305 1303 1303 1304 1305 1307 1309 1311 1313 1315 1317 1319 1321 1324 1327 1332 1337 1344 1351
1493 1487 1480 1472 1464 1455 1448 1440 1431 1421 1412 1403 1393 1383 1373 1362 1352 1344 1336 1329 1322 1316 1311 1306 1303 1301 1300 1300 1300 1302 1304 1306 1308 1310 1311 1313 1316 1319 1322 1326 1331 1337 1344 1350
1489 1482 1474 1467 1459 1450 1442 1434 1425 1417 1407 1398 1388 1377 1368 1358 1349 1340 1331 1325 1319 1313 1308 1304 1301 1299 1298 1298 1299 1300 1302 1303 1305 1307 1309 1312 1314 1318 1321 1325 1331 1337 1344 1350
1483 1477 1469 1462 1454 1445 1437 1428 1421 1413 1404 1395 1385 1375 1364 1354 1345 1338 1331 1323 1317 1312 1307 1304 1301 1299 1298 1298 1299 1299 1301 1302 1304 1305 1308 1311 1314 1318 1321 1326 1332 1338 1345 1351
1479 1472 1465 1457 1449 1442 1434 1425 1417 1409 1400 1391 1381 1372 1363 1354 1345 1337 1330 1324 1318 1313 1309 1305 1302 1301 1299 1299 1299 1299 1300 1302 1303 1305 1308 1311 1314 1318 1323 1328 1334 1340 1346 1352
1475 1469 1462 1456 1449 1441 1432 1424 1415 1407 1398 1388 1379 1370 1361 1352 1344 1337 1331 1325 1320 1315 1312 1308 1305 1303 1301 1301 1300 1301 1301 1303 1304 1306 1309 1312 1315 1320 1325 1331 1336 1342 1348 1353
1472 1466 1459 1452 1446 1439 1431 1423 1415 1406 1398 1389 1379 1370 1361 1353 1345 1338 1332 1326 1321 1317 1314 1311 1309 1306 1304 1304 1303 1303 1304 1305 1306 1308 1311 1314 1318 1323 1328 1334 1339 1344 1350 1355